Voltar ao catálogo

NTS-3

AtivoNavegaçãoGEO
NORAD 65160·PAYLOAD·🇺🇸 United States

Lançado Aug 13, 2025 de Cape Canaveral Space Force Station

Loading…

TLE

AtualizadoSource: Space-Track

Época: Sep 14, 2026, 10:08 UTC

1 65160U 25173A   26257.42285115 -.00000266  00000-0  00000-0 0  9991
2 65160   3.4592  70.7562 0001085 131.0593 254.5905  1.00660646   937

Acompanhe NTS-3 em tempo real com AllMySat

Download on the App Store